Location: *
(43.0833°N, 13.0500°E)
Time: 15:25:30
(UTC+00:00)

Cosmos 2084 - Pass Details

Date: 15 November 2019
Orbit: 557 x 626 km, 62.8° (Epoch: 08 December)

Event Time Altitude Azimuth Distance (km) Brightness Sun altitude
Rises 16:12:31 0° 325° (NW) 2,832 7.2 -5.6°
Reaches altitude 10° 16:14:50 10° 328° (NNW) 1,916 6.2 -6.0°
Maximum altitude 16:19:07 63° 50° (NE) 648 3.4 -6.7°
Drops below altitude 10° 16:23:17 10° 132° (SE) 1,864 5.7 -7.4°
Sets 16:25:30 0° 136° (SE) 2,749 6.6 -7.8°
